Tracking 35274 objects as of 10-Sep-2026
HD Live streaming from Space Station
objects crossing your sky now

STARLINK-31431

Track STARLINK-31431 now!
10-day predictions
STARLINK-31431 is classified as:


NORAD ID: 59002
Int'l Code: 2024-036E
Launch date: February 23, 2024
Source: United States (US)
Launch site: AIR FORCE WESTERN TEST RANGE (AFWTR)
Your satellite tracking list
Your tracking list is empty




NASA's NSSDC Master Catalog

Two Line Element Set (TLE):
1 59002U 24036E   26252.85469524 -.00001221  00000-0 -27590-4 0  9996
2 59002  53.1595 302.4306 0001065  88.9682 271.1442 15.31696607143527
Source of the keplerian elements: AFSPC